Flight Briefing for CPX726

Departure Arrival
El Nuevo Dorado International Airport (SKBO)
Click to view FAA NOTAMS
Miami International Airport (KMIA)
Click to view FAA NOTAMS
Departure Time Arrival Time
0510 UTC 0815 UTC
Aircraft Distance
B767-300BDSF 1372nm
Departure METAR Arrival METAR
SKBO 271100Z 32003KT 9999 SCT017 BKN070 10/09 A3035 NOSIG KMIA 271053Z 07007KT 10SM FEW024 26/20 A3005 RMK AO2 SLP175 T02610200
Suggested Route
UCA UA301 URSUS FLIPR5


View recent IFR Routes data
Notes



Charts and Procedures

Charts for SKBO
No chart available
Charts for KMIA
No chart available

Windy.com Weather Map